Theta_e
318 323 324 324 323 322 321 319 320 323 323 325 331 331 326 323 322 323 322 319 312 314 321 319 315 316 314 314 312 313 315 314 314 314 311 310 309 308 308 307 307 306 305 303 303 304 304 305 307 307 308 309 309 308 309 310 311 313 314 314 316 317 319 319 319 319 320 321 321 320 320 320 321 322 323 322 323 324 324 324 324 323 323 323 322 321
319 323 324 323 320 320 320 320 320 321 322 325 325 322 324 323 323 321 317 316 313 314 322 320 315 316 314 313 312 311 314 314 313 314 312 312 310 309 309 308 308 307 305 304 303 303 303 304 305 306 308 309 309 308 309 309 310 312 313 314 315 316 318 318 319 319 320 321 321 320 320 320 321 321 322 322 322 323 323 323 323 323 322 321 321 320
322 324 323 319 317 319 320 317 319 321 322 327 325 320 323 324 321 319 315 315 314 314 322 324 318 315 314 312 312 311 311 311 311 312 312 312 312 311 310 309 309 308 307 307 305 301 301 303 303 305 307 309 308 308 309 309 309 311 312 313 314 316 317 317 318 318 319 319 320 320 320 320 319 319 319 320 320 321 322 321 321 321 321 320 319 318
323 325 321 317 318 320 319 316 318 320 320 325 325 322 324 323 320 319 317 315 314 313 318 323 317 314 313 313 313 313 313 313 310 310 310 310 311 311 311 311 310 309 309 308 307 302 300 300 302 304 306 308 308 308 309 309 309 309 310 311 313 315 315 315 316 316 317 317 317 318 318 317 317 316 315 316 318 318 319 319 319 320 319 318 317 317
321 320 314 313 317 320 322 318 317 319 320 323 322 322 323 324 321 319 319 318 317 315 314 316 318 320 320 317 316 317 319 318 313 311 311 310 310 309 310 310 309 310 309 308 308 304 300 299 300 303 306 307 307 308 308 309 309 309 308 309 312 314 314 314 315 315 316 316 315 314 313 311 310 310 310 312 313 313 316 318 318 318 317 316 316 315
320 316 313 317 316 318 323 321 321 322 322 325 324 321 320 322 321 319 320 320 323 325 317 314 321 332 333 328 323 323 326 324 319 318 317 314 312 311 310 310 309 309 309 308 307 305 301 299 300 302 305 306 307 308 308 309 309 309 308 309 313 314 313 313 314 314 315 316 315 314 311 307 304 304 306 310 312 312 315 317 317 317 316 315 314 313
319 313 316 324 320 318 320 319 321 320 320 325 322 318 317 316 318 319 319 319 325 329 318 313 319 327 331 327 323 325 326 322 318 319 318 315 315 314 313 312 311 310 308 307 306 305 301 300 300 302 304 306 307 307 308 308 308 308 307 308 311 312 311 311 312 313 313 314 315 315 315 313 310 309 309 312 314 314 315 315 316 317 316 314 312 310
317 314 315 322 322 320 318 320 321 316 321 326 318 317 318 316 320 321 319 319 324 325 317 317 322 323 323 322 323 325 325 321 319 319 317 315 314 314 314 313 312 311 310 308 307 305 302 300 300 301 304 305 306 307 308 308 308 308 308 307 309 310 310 310 311 312 312 313 314 314 314 314 315 315 314 313 313 314 314 315 315 315 314 311 309 307
316 320 319 317 319 319 320 325 322 315 321 323 314 315 319 319 323 323 323 323 323 322 320 320 321 322 326 327 325 324 325 323 323 324 320 317 316 316 316 315 313 313 310 309 308 305 302 300 300 301 303 305 306 307 307 308 308 308 308 308 308 308 309 310 311 311 312 311 312 312 312 312 311 312 312 312 312 313 313 314 313 312 310 308 306 303
313 317 317 317 319 319 321 321 316 315 319 315 310 315 317 319 322 323 327 327 326 326 322 321 322 321 324 327 325 322 324 325 322 321 318 317 319 319 320 320 317 315 312 308 307 303 300 300 300 301 303 305 306 307 307 307 308 307 307 307 307 307 309 310 310 310 311 310 310 310 310 311 310 309 309 308 307 310 312 311 310 309 307 306 302 297
312 310 311 317 318 318 319 314 310 316 317 312 316 323 321 323 324 324 326 324 327 329 322 321 324 320 322 326 326 322 324 328 325 323 322 322 325 325 328 329 323 316 312 309 306 302 299 299 300 300 302 305 306 307 307 307 307 307 307 306 306 306 308 309 309 309 309 309 309 309 309 310 310 309 308 306 304 306 308 307 306 306 305 303 298 294
313 313 315 317 316 316 319 316 311 312 312 316 329 329 322 325 325 324 326 324 327 328 320 318 319 318 321 326 326 322 321 324 324 326 329 328 332 334 333 333 325 314 310 309 306 303 300 299 299 300 302 304 305 306 306 307 307 306 306 306 305 304 306 307 306 306 306 306 307 308 307 308 309 309 309 310 309 308 307 305 304 304 302 298 293 292
315 318 318 315 313 316 323 322 316 314 313 320 330 326 322 326 324 323 328 326 326 324 316 314 317 317 319 321 322 321 321 320 318 320 324 325 329 332 328 325 322 314 309 308 306 304 302 300 299 300 302 304 305 305 305 306 306 305 305 306 304 303 304 305 305 304 304 305 306 306 306 307 308 308 309 312 313 311 309 305 304 303 300 295 291 292
318 317 315 314 315 317 321 321 320 319 318 320 324 324 323 325 323 325 328 322 321 321 314 310 316 320 320 321 320 318 317 318 317 316 318 318 320 322 320 317 318 315 310 308 306 303 302 300 298 299 302 303 304 304 305 305 305 305 304 304 303 302 303 304 303 302 302 303 304 304 305 307 307 307 308 311 312 311 308 305 303 303 299 293 291 292
319 318 317 316 318 318 317 317 322 323 318 319 321 322 324 326 325 326 330 327 321 323 319 312 316 326 327 324 320 317 317 319 320 318 315 314 313 314 314 314 314 314 312 308 305 302 300 298 298 299 301 303 304 304 304 304 304 304 303 302 302 301 302 303 302 301 301 302 302 303 304 306 307 308 308 309 310 309 306 303 302 300 296 292 292 292
316 319 321 316 315 316 316 317 322 321 317 318 320 320 321 324 324 320 320 322 323 324 325 319 320 326 326 322 319 319 323 323 322 319 317 317 315 312 314 313 312 314 312 308 305 302 299 297 298 299 301 302 303 303 304 304 304 303 303 302 301 301 302 302 300 301 302 302 302 302 304 305 306 306 305 305 307 306 304 302 300 297 294 292 292 292
317 319 317 313 313 315 316 318 320 319 317 317 318 320 319 318 325 324 315 312 314 318 322 323 322 321 320 321 319 320 324 323 322 322 322 322 318 314 314 314 314 315 313 310 307 302 298 297 297 298 300 302 303 303 303 303 303 303 303 302 301 301 301 300 300 301 302 302 302 302 303 304 304 304 304 304 306 304 301 299 297 294 292 292 292 291
319 321 316 313 316 313 310 316 319 316 316 319 321 321 316 315 323 327 321 319 320 321 324 325 322 319 319 320 319 318 319 319 320 320 320 320 318 317 317 316 317 317 315 312 306 300 298 296 296 298 299 300 302 302 303 303 303 303 303 302 301 300 300 300 301 301 301 301 301 301 301 303 303 303 304 305 306 304 299 295 293 292 292 292 291 291
317 318 318 312 315 313 310 315 319 314 312 318 322 319 318 322 324 322 322 326 326 325 329 330 323 318 319 321 320 320 323 325 323 320 319 320 317 316 318 318 320 320 319 315 306 300 299 296 296 297 298 300 301 302 303 302 302 301 301 301 301 300 301 301 300 299 299 299 301 302 302 303 303 303 303 304 304 301 297 294 292 291 292 291 291 290
316 316 319 312 311 315 314 316 320 318 313 314 316 314 317 323 324 323 322 324 324 324 327 330 329 321 320 326 325 320 324 327 326 326 326 325 319 318 319 318 321 325 324 320 309 301 298 296 296 297 297 299 300 301 302 302 301 301 301 301 300 299 299 299 298 298 298 299 301 302 302 301 301 303 302 302 302 299 295 293 292 291 291 291 290 290
316 314 318 315 311 315 319 318 318 319 317 316 317 317 317 318 321 322 321 320 323 328 328 328 328 318 317 327 327 321 323 323 323 326 328 331 329 323 318 317 323 327 327 324 311 301 298 296 295 297 297 298 299 300 301 301 301 300 300 300 299 298 298 297 297 298 299 299 299 300 300 298 299 301 301 300 300 297 294 292 291 291 291 291 290 289
316 315 319 320 316 318 321 317 314 317 318 317 318 318 317 318 319 320 319 318 321 326 326 326 326 317 318 330 327 322 326 322 320 320 321 331 337 328 318 320 324 324 327 325 311 301 298 296 294 296 297 297 298 299 300 301 301 300 299 299 299 298 297 297 297 298 298 299 298 298 298 299 299 299 299 299 297 294 292 290 290 290 290 290 290 289
319 321 321 322 320 320 317 312 310 314 318 317 317 318 317 317 318 320 321 321 321 322 320 321 325 319 322 333 328 323 327 324 321 321 321 326 329 324 320 322 320 318 320 318 307 301 297 294 294 295 296 297 297 298 299 300 300 300 299 299 299 298 297 297 298 298 298 298 297 297 297 298 299 298 297 297 295 292 290 289 290 290 290 290 289 289
318 320 318 318 322 322 317 313 310 310 314 317 317 317 318 318 319 323 324 321 321 323 321 321 324 320 321 332 326 320 322 320 319 323 326 326 323 319 321 323 318 314 314 309 303 300 295 293 294 294 294 295 296 297 298 298 299 299 299 298 298 298 297 297 298 298 297 297 296 295 295 296 297 296 295 295 293 291 290 289 289 289 289 289 289 289
316 320 319 318 321 322 319 318 316 313 313 318 320 318 318 319 319 320 321 319 320 324 323 323 323 320 322 328 322 318 321 322 320 319 321 327 326 321 324 329 322 315 310 305 302 300 297 296 295 294 294 295 295 296 297 297 298 298 298 298 298 297 297 297 297 297 296 295 294 294 293 294 294 294 293 293 291 290 289 288 288 288 288 289 289 288
316 320 318 317 319 320 319 319 320 319 316 317 322 320 316 317 319 318 319 320 321 323 322 321 321 318 319 322 321 320 322 322 324 323 318 319 320 319 322 327 325 317 309 303 302 301 299 297 295 294 294 294 295 296 296 296 297 297 297 297 297 297 296 296 296 295 295 294 293 292 292 292 292 292 292 290 290 289 289 288 288 288 288 288 288 288
321 321 317 317 319 318 318 318 320 322 320 318 320 320 316 316 317 318 319 321 320 320 320 320 319 319 319 321 322 324 324 324 326 327 323 321 321 319 316 314 314 313 307 301 301 301 299 297 295 294 294 294 295 295 296 296 296 296 296 296 296 297 296 296 295 294 294 294 293 292 292 291 291 291 291 290 289 289 289 288 288 288 288 288 288 288
323 322 318 318 318 318 318 318 319 322 323 320 319 318 317 316 316 318 319 320 319 320 321 319 319 320 318 318 322 325 326 327 326 326 327 325 323 320 316 314 313 311 305 301 302 302 301 299 296 293 293 293 294 295 295 295 296 296 296 296 296 295 295 295 294 293 294 293 292 292 291 291 290 290 290 289 289 288 288 288 287 287 288 288 288 288
322 320 319 320 319 318 318 317 320 322 322 320 319 318 317 316 316 318 319 318 319 320 320 318 319 320 318 316 318 320 322 323 324 325 323 318 317 318 320 324 324 316 308 309 311 306 301 300 297 294 293 293 293 294 294 295 295 295 295 295 295 295 295 295 294 293 293 293 292 291 291 290 290 289 289 288 288 288 288 287 287 287 288 288 288 288
318 318 319 320 319 319 318 318 320 320 319 319 318 317 317 316 316 317 317 318 318 319 319 319 319 319 318 316 316 318 320 319 319 321 318 314 317 323 326 328 328 321 315 320 322 311 301 299 298 294 293 292 293 294 294 294 295 294 294 294 294 294 294 294 293 293 292 292 292 291 290 290 289 288 288 288 287 287 287 287 287 287 287 287 287 287
316 317 319 319 319 319 318 318 319 318 318 318 318 317 317 316 316 316 317 317 318 318 318 318 319 319 316 316 317 319 321 319 317 319 318 318 322 324 324 324 321 318 317 320 323 313 301 298 297 295 293 293 293 293 294 294 294 294 294 294 293 293 293 293 293 293 292 292 292 291 290 289 289 288 288 288 288 287 287 287 287 286 286 286 286 286
315 316 318 319 320 320 319 319 320 318 316 317 318 319 318 316 316 316 316 317 317 318 318 318 319 318 316 318 318 319 322 320 318 319 319 319 320 319 320 319 316 316 317 317 317 312 304 301 300 298 295 293 293 293 294 294 294 294 294 293 293 293 292 292 293 292 292 292 292 291 290 290 289 289 288 288 287 287 287 286 286 285 285 285 285 285
317 316 317 319 320 321 320 320 319 318 318 319 318 318 317 316 316 316 316 316 316 317 318 319 318 317 317 320 320 320 323 322 319 318 318 318 317 316 317 317 316 316 317 316 314 312 308 305 301 297 295 294 294 294 294 294 294 294 294 293 293 292 292 292 292 292 292 292 291 291 290 290 289 288 288 287 287 286 286 285 285 285 285 285 285 285
318 317 316 317 320 321 320 319 319 320 322 322 319 318 317 316 316 316 317 316 315 316 316 317 317 316 316 318 317 318 321 322 319 318 318 317 317 317 316 316 316 316 316 315 313 311 309 305 299 296 296 296 295 295 294 294 294 294 294 293 293 292 292 291 291 291 291 291 291 290 290 289 288 288 287 287 286 286 285 285 285 285 285 285 285 285
317 316 315 316 318 320 320 319 321 323 322 323 324 322 318 317 316 316 317 316 315 315 316 316 316 317 316 316 316 317 318 320 319 318 317 316 317 317 317 318 317 315 314 313 311 311 310 304 299 296 296 296 295 295 294 293 293 293 293 293 292 292 291 291 290 290 290 290 290 290 289 288 288 287 287 286 286 286 285 285 285 285 285 285 285 285
316 315 315 317 318 319 321 321 323 323 321 323 326 324 320 319 318 318 318 317 315 315 315 315 315 315 315 315 316 316 317 319 319 317 315 314 315 315 316 316 316 314 313 312 311 310 308 303 300 298 297 296 295 294 294 293 293 293 293 292 292 291 291 291 290 290 290 290 290 289 289 288 288 287 287 286 286 286 285 285 285 285 285 285 285 285
317 316 315 317 318 319 321 321 322 322 322 322 324 322 319 318 319 320 319 319 316 315 315 315 315 315 315 315 315 315 316 317 317 316 314 315 315 314 313 313 313 314 312 309 306 305 304 302 301 300 298 296 295 294 293 293 292 292 292 291 291 291 290 290 290 290 290 290 290 289 289 289 288 288 287 287 286 286 285 285 285 285 285 284 284 284
316 316 315 317 319 319 320 322 322 323 323 322 321 320 319 319 319 319 320 320 319 317 315 314 314 315 315 315 315 316 315 316 317 316 316 318 317 314 312 312 312 311 308 303 301 300 301 301 300 299 297 295 294 293 293 292 292 292 291 291 290 290 290 290 290 290 290 290 290 290 289 289 288 288 288 287 287 286 286 285 285 285 284 284 284 284
315 315 315 315 318 319 320 321 322 323 323 322 322 322 322 322 321 319 321 321 319 317 317 315 315 316 316 315 315 316 316 317 317 315 317 322 321 316 314 314 312 306 300 298 299 299 299 299 298 297 296 294 292 292 292 292 292 291 290 290 290 289 289 289 290 290 290 290 290 289 289 289 288 288 288 288 288 287 287 286 286 285 285 285 284 284
314 315 315 315 318 319 319 321 322 321 322 324 324 322 319 318 319 322 323 321 319 320 320 317 316 316 316 315 315 315 316 317 316 316 320 321 317 313 310 310 310 305 299 297 298 299 298 297 296 293 293 292 292 292 292 292 291 290 290 289 289 289 289 289 290 290 290 290 289 289 289 289 289 289 289 289 288 288 287 287 286 285 285 285 284 284
315 315 316 316 317 318 319 321 320 320 323 326 321 316 315 316 319 323 323 322 325 328 323 319 318 318 316 316 316 315 315 314 315 317 317 315 314 311 304 297 296 296 295 295 297 297 296 295 294 292 292 292 292 291 291 291 290 289 289 289 288 289 289 289 290 290 290 290 289 289 289 289 289 289 289 289 288 287 287 287 286 286 286 285 285 285
316 316 316 316 317 317 318 320 319 320 325 323 315 311 314 318 321 322 321 325 332 332 325 319 319 319 318 317 316 315 314 314 315 315 314 314 314 311 303 296 294 294 294 293 294 294 294 292 292 292 291 292 292 291 291 291 290 289 289 288 288 289 289 289 289 289 289 289 289 289 288 288 288 289 288 288 288 287 287 287 287 287 287 286 286 285
316 317 317 317 317 318 318 319 320 320 319 316 312 312 315 319 323 325 323 324 326 327 326 321 318 318 318 317 317 316 314 314 314 312 310 309 308 305 301 298 299 297 293 291 291 292 292 291 291 291 291 291 292 291 291 290 289 289 289 289 289 289 289 289 289 289 289 289 289 289 288 288 288 288 288 288 288 287 287 287 287 287 287 286 286 285
316 316 318 318 317 318 319 319 321 321 316 313 316 320 317 316 322 328 326 322 320 319 319 318 317 316 316 316 317 315 312 312 310 307 305 303 301 300 298 296 295 293 290 290 291 292 291 290 289 289 290 290 291 291 291 290 290 289 289 289 289 289 289 289 289 289 289 289 289 289 288 288 288 288 288 288 287 287 287 287 287 286 286 286 286 285
317 317 318 318 317 318 319 317 317 316 313 312 316 321 319 314 317 321 321 321 321 317 312 314 319 317 312 311 313 313 311 310 307 304 304 302 298 296 295 293 291 290 289 289 289 291 290 289 288 288 289 289 290 290 290 291 290 289 288 289 289 289 289 289 289 289 289 288 288 288 288 288 288 288 288 287 287 287 287 287 286 286 285 285 284 284
317 317 316 317 318 318 318 316 313 312 313 313 314 317 318 315 315 314 314 317 320 318 314 316 324 324 316 310 310 312 312 309 305 302 300 298 295 293 293 291 288 286 286 287 288 289 289 288 287 288 288 288 289 290 290 291 291 291 289 289 289 289 289 289 288 288 288 288 288 288 288 287 287 287 287 287 287 287 287 287 286 285 285 284 283 283
315 313 312 315 317 318 319 319 317 316 316 315 313 312 313 311 309 308 310 311 315 317 314 312 314 315 311 307 309 312 309 304 303 301 296 294 294 293 292 292 289 285 285 286 287 287 287 287 286 286 286 287 289 290 290 291 291 292 291 289 289 289 289 289 289 288 288 288 288 287 287 287 287 287 286 286 286 286 286 286 286 285 284 284 283 282
311 309 309 312 315 315 317 319 319 316 313 311 310 309 310 310 306 304 304 305 306 309 307 304 304 306 306 305 306 308 305 300 299 299 295 293 293 292 291 291 289 286 285 285 286 287 287 286 285 285 285 286 288 290 290 291 291 291 291 290 289 289 289 289 288 288 288 288 288 287 287 287 287 286 286 286 286 285 285 285 285 285 285 284 284 284
308 307 309 311 312 313 314 316 316 314 312 311 310 308 307 307 307 305 303 301 302 304 305 303 301 301 303 303 302 303 303 300 296 295 294 293 291 291 290 288 286 284 284 285 285 287 286 285 285 285 285 286 288 290 290 290 290 290 290 290 289 289 289 288 288 288 288 287 287 287 287 287 286 286 286 285 285 285 285 285 285 285 285 285 285 285
307 308 309 311 312 313 314 314 314 314 313 313 313 311 307 304 304 305 304 302 301 303 305 306 301 295 295 297 297 300 303 299 293 293 294 292 291 290 289 286 284 283 283 284 286 286 286 285 285 285 285 286 288 289 289 289 289 289 289 289 288 288 288 288 287 287 287 286 286 286 286 286 286 286 286 285 285 284 284 284 284 284 284 284 284 284
309 309 309 310 311 312 313 313 312 312 312 312 312 313 311 305 303 305 305 303 301 300 301 305 304 299 296 295 294 297 299 296 292 292 293 291 289 288 286 285 284 283 283 284 285 285 284 284 284 284 284 286 287 288 288 288 288 288 288 288 288 288 289 288 287 286 286 286 286 286 286 286 285 285 285 285 285 285 284 283 283 283 283 284 284 283
Wind_Speed
3 4 2 5 6 7 9 7 5 5 6 7 5 4 3 3 4 5 3 5 1 2 6 7 7 13 14 12 13 7 2 5 9 10 11 10 10 9 10 11 11 12 11 9 11 17 21 24 27 27 26 24 21 19 20 20 21 21 21 22 24 25 24 24 26 26 26 26 25 24 24 24 22 22 22 22 22 21 20 19 17 18 18 19 21 18
4 4 7 8 7 7 6 6 7 6 6 6 5 2 1 3 6 5 2 4 1 3 6 4 5 13 14 13 13 7 4 8 11 12 13 13 12 10 10 13 13 10 8 6 9 16 20 24 27 28 28 27 24 22 22 22 22 23 23 24 25 26 25 25 26 25 25 26 26 26 26 25 24 24 24 24 22 21 20 19 18 18 18 20 19 16
3 4 10 6 6 6 5 6 7 6 5 4 3 3 2 3 4 5 3 4 1 3 4 4 5 11 13 12 14 12 10 11 12 13 14 13 12 11 11 13 12 10 8 7 8 13 20 23 25 27 28 28 25 23 23 23 23 24 25 26 26 26 26 26 26 26 26 26 26 26 26 26 26 25 25 24 23 22 21 20 20 19 18 18 16 15
2 6 8 5 9 8 6 5 7 6 3 2 4 3 2 2 1 3 4 4 1 2 2 4 6 9 10 10 14 14 9 10 11 12 13 11 12 15 14 11 10 11 11 10 8 10 16 20 23 27 27 26 24 23 24 25 25 26 26 26 27 27 27 27 27 27 27 27 26 25 25 26 26 25 24 23 23 24 22 20 21 20 19 18 17 19
5 5 2 5 7 8 7 5 7 6 2 2 4 6 4 4 5 4 4 3 2 3 2 3 7 7 6 8 12 8 3 7 10 9 12 12 13 15 13 11 11 12 11 11 10 9 13 20 25 27 27 27 26 27 28 28 28 27 26 26 28 28 28 29 28 29 29 27 25 25 25 24 23 23 23 23 24 24 22 21 22 22 20 19 20 23
7 5 4 6 4 6 7 4 5 7 3 4 5 9 9 7 6 3 3 5 4 4 2 1 4 6 4 5 10 5 4 8 7 6 12 12 11 11 10 13 12 11 11 10 10 9 14 20 24 26 27 29 29 30 31 31 29 27 26 28 29 29 30 30 30 30 29 28 27 28 28 25 22 22 24 25 25 24 23 22 23 23 21 20 23 25
3 2 4 6 5 5 6 3 5 7 5 3 4 7 9 6 4 3 1 2 1 4 3 2 1 6 5 4 8 6 7 13 9 10 14 11 10 10 9 11 10 9 9 8 7 9 13 18 22 25 29 31 31 30 29 29 29 27 26 28 30 31 31 31 31 30 29 29 30 31 30 28 26 26 27 26 25 24 24 24 25 25 23 24 26 27
3 3 2 5 6 5 5 3 6 8 7 3 3 3 6 7 6 5 4 3 3 3 3 3 4 4 7 6 7 5 8 13 12 14 15 10 11 11 10 11 10 9 8 7 8 8 11 18 23 27 30 31 30 28 28 29 29 29 28 29 31 31 32 32 32 31 31 31 31 30 30 29 29 30 30 28 26 25 25 25 26 26 26 27 28 28
3 6 6 7 5 4 5 4 8 11 5 4 2 5 6 6 5 5 5 3 1 4 4 3 5 2 8 6 3 2 5 10 12 14 15 11 10 10 10 11 10 8 7 7 8 9 11 18 24 27 28 28 28 28 29 31 31 31 30 30 31 31 32 33 33 32 32 32 31 30 29 30 29 29 30 29 28 28 27 27 27 27 28 29 29 29
1 5 7 8 5 6 4 1 6 10 4 3 6 7 6 6 5 5 4 2 3 3 4 6 7 3 6 6 1 1 3 8 11 12 12 10 8 8 9 9 7 5 5 6 7 8 12 18 23 25 25 26 28 29 30 31 31 31 31 31 31 31 32 34 33 33 32 31 31 30 30 31 30 28 29 29 29 30 29 29 29 29 30 30 30 31
1 1 2 4 4 5 5 4 1 4 6 6 6 6 6 5 4 4 2 4 3 5 4 7 10 5 4 5 3 4 4 6 8 7 9 8 7 8 8 6 5 4 3 4 4 5 10 15 20 22 23 26 28 29 30 31 32 32 32 32 33 33 34 34 34 33 33 32 31 31 32 32 32 31 32 32 31 31 31 31 31 31 32 31 32 32
2 1 1 2 2 5 7 6 4 3 5 6 4 4 4 3 4 4 3 3 2 5 3 2 5 3 5 7 4 6 7 6 7 6 8 9 8 8 6 4 4 3 3 3 3 4 6 9 15 20 22 25 27 29 31 32 33 33 34 34 33 33 35 35 35 34 33 33 33 33 32 32 33 34 34 33 32 32 33 33 33 33 33 33 33 33
2 4 3 0 1 4 6 6 5 4 2 4 5 5 4 2 3 2 3 0 3 7 2 2 1 2 8 8 8 11 13 11 9 8 10 10 9 9 7 5 3 2 3 3 4 5 6 7 12 19 22 24 26 29 30 32 33 34 35 35 33 33 35 35 35 35 34 34 34 34 33 33 34 34 34 32 31 34 35 35 36 36 36 36 36 35
3 5 1 3 1 3 8 6 3 1 2 5 6 6 4 2 1 4 4 1 4 6 3 3 3 3 6 6 11 18 18 13 9 9 11 10 11 12 8 4 2 2 3 4 4 6 6 8 13 18 22 24 26 28 30 31 33 33 33 35 33 33 34 35 35 35 34 34 34 34 34 34 34 34 33 31 31 35 36 36 37 38 39 39 38 37
5 6 5 8 3 6 11 8 6 7 5 5 4 5 5 5 5 5 3 3 5 4 3 2 2 4 4 3 8 13 13 10 7 9 9 9 11 10 8 6 3 4 5 4 6 7 8 10 15 18 21 24 26 28 30 31 32 33 33 34 34 34 35 35 35 35 35 35 35 34 35 35 35 33 32 31 31 35 37 37 38 40 41 40 38 36
5 7 6 3 1 9 12 5 5 8 3 2 3 4 4 5 5 1 3 5 3 2 3 2 4 5 5 6 8 7 8 8 7 8 7 10 12 8 8 8 5 6 6 5 7 8 8 11 15 18 21 23 26 28 31 32 34 34 34 35 35 35 36 36 35 35 36 36 36 35 36 36 35 33 32 32 32 35 38 38 40 42 41 39 37 36
3 5 5 4 2 5 6 2 4 4 3 2 3 4 4 4 6 3 2 1 4 2 4 2 5 6 3 7 10 8 9 9 8 9 9 11 11 7 8 7 5 6 6 6 8 7 7 10 15 19 22 24 27 29 32 34 35 37 37 37 36 35 35 36 36 36 36 36 36 36 37 36 35 34 33 32 32 35 38 39 41 42 41 39 37 36
5 3 5 2 1 3 1 2 3 3 3 6 4 6 3 2 3 3 2 1 3 4 5 2 6 6 3 6 5 2 7 10 11 12 11 11 10 7 9 8 5 6 6 7 7 6 7 11 15 19 22 25 27 30 32 33 34 35 36 37 36 35 36 37 37 36 36 36 37 36 37 37 36 35 34 31 31 36 40 41 42 43 41 39 38 37
4 3 5 1 3 3 4 2 1 4 2 5 4 4 4 2 2 2 3 3 2 3 4 4 6 5 5 6 3 3 8 11 13 12 10 12 11 8 11 9 5 4 5 6 6 6 7 10 15 19 21 24 26 28 29 30 31 33 34 35 36 36 37 37 36 35 35 35 37 37 37 37 36 35 34 32 33 37 41 43 43 43 41 40 39 38
3 3 4 2 2 1 3 2 5 1 2 3 1 2 2 2 4 3 3 4 3 3 3 4 5 5 7 7 6 9 11 11 11 9 9 12 11 10 10 8 4 5 6 6 6 7 6 9 15 19 22 24 26 27 27 28 30 32 33 34 35 34 35 35 35 34 34 35 36 37 37 37 36 36 34 34 35 38 42 43 44 43 42 41 40 38
2 3 4 2 3 1 3 5 8 9 6 4 3 4 3 1 2 1 1 2 3 3 2 2 5 10 8 6 8 11 11 11 11 9 10 9 9 10 8 6 5 5 6 6 6 6 6 8 14 18 21 23 24 25 26 28 31 32 34 35 35 34 34 35 35 35 36 36 37 37 37 38 37 36 35 34 36 39 41 43 44 43 43 41 40 39
3 3 3 2 1 4 5 4 5 9 9 9 8 9 10 7 5 3 3 1 2 3 4 3 4 13 8 5 8 10 8 9 9 8 9 8 9 9 6 5 6 6 6 6 5 5 5 8 13 16 19 21 23 26 28 29 31 32 33 35 35 35 35 37 37 37 37 37 37 37 37 38 37 36 35 35 36 39 41 43 44 43 43 42 40 39
4 3 3 4 5 6 5 2 1 4 4 5 5 5 7 7 6 6 5 4 2 2 2 3 2 13 7 6 6 7 6 7 6 6 7 9 8 5 4 6 5 5 6 5 4 5 5 8 13 16 19 21 24 27 29 30 31 33 34 35 36 36 37 37 38 38 37 37 38 38 37 37 37 36 36 37 38 39 41 43 43 43 42 41 40 39
3 2 3 4 3 2 3 3 2 1 0 3 4 2 3 5 5 5 4 4 4 3 2 3 3 13 6 4 4 4 3 6 6 6 8 8 7 4 5 7 5 6 7 4 3 4 5 8 12 14 17 20 22 25 27 30 31 33 34 35 36 37 37 37 38 37 37 37 36 36 37 37 37 37 37 38 39 40 41 42 42 42 41 41 40 39
4 3 5 5 3 3 3 3 2 1 1 3 4 3 5 7 6 3 1 2 2 6 8 6 7 12 6 2 2 4 3 6 8 5 5 6 7 6 6 5 4 5 6 4 4 4 5 7 9 11 15 19 22 24 26 29 30 32 33 35 36 36 36 37 37 37 37 36 35 36 36 37 37 38 39 39 39 40 41 42 42 41 41 40 40 39
5 5 6 7 7 7 7 6 5 4 3 2 4 6 8 10 10 5 2 3 5 9 9 6 9 15 9 3 3 5 3 5 8 6 5 6 7 7 6 5 5 4 6 6 5 5 6 7 8 11 15 18 22 25 26 27 29 30 32 34 36 36 36 36 37 37 37 36 35 36 36 37 38 38 39 39 39 40 41 42 42 42 41 40 40 40
2 3 9 12 12 13 13 10 4 7 6 6 9 10 10 11 11 8 3 5 10 10 7 9 16 20 17 9 6 7 5 6 8 6 5 6 7 8 7 6 5 4 6 6 5 5 6 7 8 11 16 19 21 24 26 27 29 31 32 33 35 35 36 36 36 36 37 36 36 36 37 37 38 39 39 39 39 40 41 42 42 42 41 41 40 41
2 3 10 14 15 15 17 15 7 9 9 13 14 13 12 12 13 12 11 14 14 9 10 17 19 19 22 17 10 8 7 7 8 8 7 8 8 6 5 5 6 6 7 6 6 7 8 9 9 10 14 19 20 22 25 27 29 31 32 33 34 35 35 36 36 36 36 36 36 36 37 37 37 38 38 39 39 40 41 42 42 42 42 41 41 41
3 6 10 13 16 17 19 18 10 10 10 13 15 17 16 16 16 17 20 23 18 12 14 18 15 14 22 23 15 11 10 8 9 9 8 6 5 5 5 5 6 8 8 8 8 9 9 10 9 9 13 17 19 22 24 26 29 30 31 32 33 34 35 36 36 36 36 36 36 36 35 35 36 36 37 37 38 39 40 41 42 42 42 42 42 42
3 6 9 11 14 16 19 19 13 12 12 9 10 14 16 18 21 23 25 26 22 17 16 19 18 17 21 22 15 10 10 10 9 8 6 4 5 7 7 8 8 9 10 10 9 10 11 11 9 9 12 16 21 24 26 27 29 30 31 31 32 34 35 35 36 36 35 35 36 34 33 34 35 35 36 37 38 39 40 41 42 43 43 43 43 42
4 7 9 7 8 12 17 20 17 13 12 10 7 8 13 18 23 26 24 20 17 16 19 21 20 20 20 18 13 9 7 8 8 8 8 8 9 10 10 10 10 10 10 10 9 9 9 9 9 8 11 18 24 26 27 28 28 29 31 31 32 34 34 35 36 36 35 35 35 34 33 34 35 36 36 38 38 39 40 41 42 42 42 42 41 41
5 6 7 5 7 11 14 19 17 8 6 8 8 9 16 21 21 19 17 15 16 18 20 18 16 19 19 12 9 8 7 8 11 11 10 11 11 12 13 13 12 11 11 11 10 10 10 10 10 11 14 20 25 27 29 29 28 29 31 31 32 33 33 34 36 36 35 35 34 34 35 36 37 38 38 39 39 39 40 41 41 40 40 40 40 40
5 5 5 6 7 10 14 17 12 4 3 7 12 18 24 22 14 10 11 17 20 18 15 13 15 20 17 7 7 9 8 9 12 11 11 13 13 14 15 15 13 12 11 11 11 11 11 10 11 15 19 23 26 29 31 30 30 31 32 31 31 32 33 35 35 34 34 34 34 35 36 37 37 38 38 38 38 38 38 38 39 39 39 39 39 39
5 6 5 4 4 8 14 12 6 5 8 11 14 20 23 19 14 14 17 21 20 14 12 13 14 18 18 14 15 14 9 9 11 11 13 13 12 13 14 12 11 11 12 12 12 11 10 10 12 17 22 25 26 28 28 29 30 30 29 29 30 32 34 34 33 32 31 32 33 34 35 35 36 36 36 36 36 37 37 37 38 38 38 38 38 39
7 8 5 4 4 5 7 7 6 9 11 9 9 11 14 16 19 22 23 23 20 16 16 18 19 21 22 19 16 12 9 9 10 11 13 12 10 10 10 10 11 12 13 13 12 10 10 10 13 17 21 23 23 24 25 28 29 27 26 29 31 32 33 33 31 31 30 30 31 32 32 33 33 33 33 34 35 35 36 37 37 38 38 39 39 40
8 7 4 4 4 3 3 7 9 6 3 4 7 6 5 9 14 16 18 21 21 19 18 19 24 26 24 21 17 12 8 6 6 10 13 12 10 10 9 11 13 13 13 12 11 12 13 15 17 19 21 21 22 24 26 27 28 27 27 29 31 31 32 32 31 31 30 30 30 31 31 32 32 33 33 33 34 35 35 36 37 37 38 38 38 39
10 8 5 5 6 5 7 9 8 6 6 7 10 7 5 7 11 12 13 17 18 18 17 19 25 27 23 21 19 10 3 5 9 15 15 13 13 13 13 15 14 11 11 12 13 16 18 17 18 19 19 19 22 25 26 26 28 28 28 28 29 30 30 31 31 30 30 30 31 33 33 34 34 34 34 34 34 34 35 36 36 36 36 36 35 35
12 10 8 7 5 6 8 8 7 7 8 12 16 11 8 9 10 11 9 11 13 16 19 21 24 23 18 18 16 5 2 4 12 17 13 10 13 14 13 14 13 10 11 13 13 14 14 14 14 16 18 19 21 24 26 27 28 28 27 28 29 30 30 30 30 30 31 32 33 34 34 34 35 34 34 34 35 35 35 34 34 34 34 34 34 35
15 12 10 8 5 6 7 7 8 7 7 11 14 10 7 9 9 9 6 10 14 16 16 16 18 17 15 17 15 6 4 7 14 15 9 8 10 11 11 12 12 10 10 12 11 11 12 13 13 15 18 20 21 24 26 28 29 29 27 28 29 29 28 29 30 31 32 32 32 32 33 33 33 33 33 34 35 35 34 34 33 33 33 33 33 33
14 10 9 9 8 8 8 8 7 5 6 8 7 4 5 9 13 10 5 10 11 10 9 12 14 16 16 18 14 8 8 12 14 12 5 5 5 5 6 8 8 7 8 9 9 10 12 14 15 17 19 21 22 25 27 29 29 28 27 27 27 27 28 29 30 31 30 30 30 31 32 33 34 34 34 34 34 34 33 32 32 31 31 31 31 30
9 8 8 10 11 11 12 10 6 4 6 7 4 5 6 7 9 7 10 8 4 4 8 13 16 17 17 16 11 9 12 16 13 6 1 4 3 2 1 2 2 3 5 7 9 11 13 15 16 17 18 20 23 26 28 29 28 25 25 25 25 26 28 28 28 27 27 28 29 30 32 32 33 34 33 33 32 31 31 30 30 30 30 30 30 30
6 6 7 9 10 10 10 10 7 6 5 4 5 4 5 5 4 8 7 3 3 6 9 12 14 15 15 14 11 10 12 11 7 2 3 4 4 3 1 1 3 4 3 6 9 13 15 15 14 16 17 20 24 27 29 29 26 23 24 24 24 26 26 25 26 26 27 27 28 29 30 30 31 31 31 30 30 29 29 29 29 30 30 30 31 31
7 6 5 6 7 7 7 8 7 7 4 8 9 2 3 5 6 5 2 3 3 5 7 9 10 11 12 11 11 11 10 5 2 3 4 4 3 3 3 3 4 4 5 6 8 13 16 15 14 16 18 21 24 27 28 29 25 23 23 23 24 25 24 24 25 26 26 27 27 28 29 29 29 29 29 29 29 29 29 29 29 29 29 30 30 30
6 6 5 5 6 6 7 8 6 4 5 10 11 6 7 9 5 5 4 5 4 4 5 6 8 9 9 9 9 8 6 5 3 3 4 3 4 4 4 4 4 4 5 7 10 14 16 16 15 16 18 21 24 26 28 28 25 23 23 22 23 23 23 23 25 25 26 27 27 27 28 28 28 29 29 29 29 29 29 29 28 28 28 28 28 28
8 8 5 4 5 5 5 6 3 2 4 7 7 6 10 13 10 7 7 7 5 5 5 5 7 8 6 7 6 5 5 6 6 5 5 5 5 5 4 4 4 6 7 9 12 14 16 17 18 19 18 19 22 24 25 26 25 23 22 21 22 24 24 24 25 25 26 26 26 26 27 27 27 27 28 28 28 28 28 27 27 27 27 27 27 27
6 6 3 2 2 5 4 4 4 3 4 7 9 8 9 12 11 8 8 7 6 6 6 6 7 8 7 6 6 6 6 7 6 6 5 5 5 4 4 4 5 7 9 11 12 15 18 19 19 20 19 17 19 21 22 22 22 22 21 21 22 23 24 24 25 25 25 25 25 26 26 26 26 26 26 26 26 26 26 27 27 27 27 27 27 27
3 3 3 3 4 6 6 7 10 11 9 9 11 11 10 9 7 5 7 7 6 6 7 7 6 5 4 6 8 9 8 7 7 6 5 5 6 5 5 5 6 7 10 12 14 17 20 20 18 18 19 17 17 19 20 19 19 19 21 22 22 22 23 24 25 25 25 25 25 25 25 25 26 26 25 25 25 25 25 25 25 26 27 27 27 27
3 3 3 4 6 6 5 5 8 9 7 6 7 8 8 9 7 5 6 6 4 2 4 4 4 4 5 7 9 9 7 7 8 8 7 6 6 6 6 6 6 7 9 13 16 18 19 18 18 18 18 18 18 19 19 17 17 18 20 21 21 22 23 24 25 25 25 25 25 25 25 25 25 26 26 25 25 25 25 24 25 25 26 25 25 25
1 2 3 4 6 6 6 7 7 6 6 6 8 9 10 8 6 6 6 5 4 4 3 4 5 6 7 7 7 7 7 8 8 8 8 7 6 6 6 6 7 9 11 14 16 17 18 19 20 20 19 19 19 19 18 17 18 19 20 20 21 23 24 25 24 24 24 24 24 24 24 24 24 24 25 24 24 23 23 22 22 23 22 21 21 20
3 4 3 3 6 7 7 9 9 6 7 8 9 11 12 9 6 7 7 7 8 8 8 7 6 5 5 7 7 8 9 8 7 8 8 8 7 7 7 8 9 10 13 15 16 16 18 20 22 23 22 20 20 20 20 20 21 20 19 20 21 22 24 25 24 24 24 24 24 24 24 23 23 22 22 23 23 23 21 19 19 19 19 18 17 17
5 7 6 4 7 8 8 9 7 4 7 11 8 7 9 8 8 10 11 11 11 10 9 9 8 6 6 7 6 8 9 8 8 9 8 6 6 8 9 10 11 12 14 17 19 19 19 21 23 25 24 22 22 23 22 22 21 19 19 19 19 20 22 24 25 24 24 23 23 23 23 22 22 21 21 20 21 21 21 19 17 17 17 17 16 16
Wind_Direction
76 96 169 212 205 195 194 179 150 143 119 118 124 117 158 200 268 248 243 291 246 175 256 238 238 264 268 268 270 265 184 231 256 259 259 255 252 249 244 246 244 240 247 251 236 224 220 218 212 208 204 202 201 198 195 195 201 204 202 202 200 196 197 199 194 188 185 180 181 184 183 183 183 186 185 180 176 176 176 173 175 181 180 181 175 168
71 134 225 228 193 177 176 142 114 106 88 92 124 134 226 216 256 254 223 304 292 180 265 275 262 266 265 270 272 260 222 240 243 245 253 251 249 248 244 248 246 244 249 234 220 214 212 212 208 203 201 198 195 193 194 195 199 202 203 204 201 196 196 201 197 192 192 190 189 189 185 181 180 182 181 178 176 178 177 172 173 179 179 180 175 173
56 218 239 214 137 110 95 114 116 109 96 83 113 135 249 244 272 283 293 328 334 186 264 308 286 266 265 271 272 261 243 246 240 236 247 249 251 252 243 245 247 248 243 225 214 207 206 206 202 200 198 197 196 193 194 195 197 200 202 203 202 198 197 198 196 195 196 191 189 188 184 181 177 178 180 178 177 178 177 173 174 178 178 177 178 186
171 250 248 177 135 109 77 94 109 104 109 119 134 149 233 249 274 281 293 323 285 207 276 313 296 272 266 266 267 262 250 257 255 243 247 248 248 251 249 248 244 242 240 230 220 203 202 201 199 199 197 196 195 194 195 195 196 198 198 199 198 198 197 195 194 193 192 187 184 184 183 181 176 175 178 176 176 174 173 175 175 175 176 178 187 192
223 247 223 118 133 127 109 119 128 134 213 243 189 184 207 222 217 234 288 319 318 336 348 308 301 285 262 251 257 275 316 279 264 252 255 250 245 251 258 259 244 239 240 230 220 198 193 198 199 199 197 195 194 196 198 196 196 196 194 196 198 200 197 195 195 193 191 188 185 181 176 174 170 168 172 172 171 170 172 178 177 175 177 182 192 190
253 231 130 98 104 118 122 153 171 161 192 281 231 205 211 215 213 227 350 4 350 329 330 6 296 283 287 257 253 284 327 280 268 260 257 251 251 250 251 256 247 238 240 232 221 199 193 199 199 199 197 196 197 199 199 197 197 195 192 196 200 201 197 195 197 195 194 195 191 184 175 169 164 163 170 174 174 174 176 181 179 177 181 188 192 186
244 215 121 119 129 127 128 177 217 170 143 279 254 210 210 192 172 192 105 44 286 271 268 107 217 278 295 260 252 277 282 273 279 273 262 254 256 251 243 252 250 239 237 233 222 197 193 197 195 198 199 199 200 200 198 197 196 195 193 195 199 201 198 196 198 199 199 198 193 189 186 185 181 176 178 180 182 182 182 182 181 182 186 189 188 183
168 160 111 124 122 128 149 197 218 165 137 240 255 159 164 161 176 186 153 179 238 275 274 149 139 281 286 253 250 271 273 278 283 274 268 258 250 253 251 252 250 241 231 220 217 200 194 197 196 199 201 201 200 197 195 195 195 197 195 194 197 200 200 200 200 202 202 199 194 191 191 192 190 186 184 183 184 184 184 182 183 186 187 185 184 182
154 175 186 164 144 167 190 212 192 159 146 247 207 120 131 145 159 136 124 177 308 346 298 202 144 240 277 269 266 263 263 274 275 268 269 265 253 253 254 253 252 247 230 214 212 203 198 199 200 203 201 200 199 195 194 194 195 197 197 196 197 199 202 202 201 203 204 201 196 194 194 191 188 187 185 182 183 183 183 183 184 187 184 181 181 181
113 198 194 159 158 197 197 255 186 165 171 205 133 99 82 82 82 88 110 121 64 327 264 185 164 198 275 269 211 168 256 257 258 264 269 272 267 255 254 257 260 259 236 220 215 205 201 202 203 202 199 197 196 195 195 194 193 195 195 195 195 198 202 202 201 202 203 201 197 195 195 192 188 187 183 179 179 180 182 183 183 184 182 180 181 181
333 276 204 151 167 181 130 67 83 142 139 140 114 79 60 47 41 59 58 76 78 285 265 185 186 185 273 271 204 204 225 221 231 257 272 278 279 261 256 262 261 258 242 220 216 205 198 201 201 197 196 195 194 194 193 193 194 193 193 195 195 198 201 202 201 201 202 202 200 198 197 195 191 188 182 177 176 179 181 182 182 182 182 181 181 180
338 321 247 201 148 122 99 69 32 56 102 109 96 90 78 2 8 29 351 43 134 249 275 210 212 185 240 254 239 247 259 235 215 229 254 265 271 265 257 259 259 251 236 209 195 188 178 185 190 192 193 192 190 190 190 191 193 193 194 195 195 197 200 202 201 201 202 203 202 201 199 198 195 189 183 181 181 183 184 183 182 181 182 181 180 180
267 230 229 252 141 135 114 81 39 10 34 90 102 111 103 330 347 342 287 141 219 247 236 140 186 233 245 252 258 264 266 250 224 223 240 248 259 265 259 246 251 242 219 203 190 188 181 180 186 189 190 189 188 189 189 190 193 193 195 196 195 196 200 202 202 201 202 203 203 202 201 199 196 190 186 186 187 188 188 187 185 183 182 181 180 181
272 292 224 150 254 187 153 147 151 214 197 158 148 142 138 150 203 250 259 268 266 265 242 163 170 243 269 264 244 244 249 248 233 233 241 245 252 261 264 244 226 223 219 213 206 199 198 196 192 190 189 188 188 189 189 191 193 194 195 196 195 196 199 202 202 201 201 203 203 202 202 201 196 191 190 192 193 191 190 190 189 186 184 183 182 182
215 278 210 173 205 187 182 190 164 142 160 182 159 139 159 170 179 214 219 213 253 280 284 234 190 203 222 259 242 238 255 267 259 254 259 263 257 259 272 265 235 233 227 217 218 214 209 202 195 192 191 190 190 190 190 192 193 194 195 196 196 196 198 201 201 201 201 202 202 202 202 200 197 195 194 196 198 195 192 191 190 188 186 185 184 183
200 260 246 229 233 170 181 200 120 112 141 207 122 118 196 195 154 167 203 179 185 314 303 250 227 215 211 271 269 249 266 274 271 276 276 268 262 259 267 260 238 240 233 216 224 225 216 204 197 194 192 192 191 190 192 193 194 195 196 197 198 199 200 200 201 201 203 203 203 202 202 199 197 197 197 197 198 197 194 193 191 189 187 186 185 185
172 269 294 346 346 171 182 195 122 139 182 161 144 177 213 177 121 111 238 121 85 257 273 236 250 278 313 282 264 244 260 272 278 276 259 256 262 263 265 256 231 234 228 220 226 222 210 201 199 199 195 193 193 192 194 195 195 196 197 197 198 200 200 200 202 202 203 203 203 202 201 200 199 199 199 199 199 199 195 193 192 189 187 187 186 186
167 254 308 42 194 274 306 110 67 18 126 130 182 204 169 107 101 111 207 350 43 248 270 264 251 279 301 278 288 272 260 263 261 258 254 259 264 262 266 255 220 220 221 226 232 217 204 201 200 201 200 198 196 195 196 197 197 197 198 199 198 198 200 201 203 203 202 202 202 201 201 201 202 202 202 203 204 202 197 193 191 189 188 188 188 188
155 229 303 43 191 292 2 108 95 353 54 132 188 190 125 157 203 121 164 200 222 242 275 290 283 272 224 235 274 223 228 241 248 252 255 260 258 255 263 254 216 214 229 230 229 215 205 202 200 199 200 201 200 199 199 198 198 198 199 201 200 201 203 203 203 202 201 201 202 203 204 204 204 204 204 205 206 203 198 194 192 190 189 189 189 189
139 199 274 332 245 300 33 162 191 215 32 66 103 131 115 174 181 166 159 173 198 218 259 303 316 277 225 201 199 214 219 223 235 245 247 250 249 242 250 249 220 216 229 226 220 217 207 200 201 199 199 201 200 200 200 198 198 199 199 201 202 203 203 203 201 201 201 202 203 205 206 205 204 205 206 207 207 204 199 196 193 191 190 190 190 190
107 205 239 311 323 179 178 215 194 178 166 159 174 177 192 183 125 180 179 128 150 166 201 284 299 273 250 177 186 215 223 220 220 230 235 237 244 245 242 236 226 224 229 227 216 210 204 198 200 201 200 201 200 199 199 199 199 200 200 201 202 202 201 201 201 201 203 204 205 206 207 205 204 205 207 208 208 206 201 197 194 192 192 192 191 191
165 198 192 178 233 199 215 244 198 190 187 182 190 195 196 182 149 184 228 204 126 140 181 175 264 273 260 158 190 213 215 219 215 227 244 238 233 246 253 233 224 227 232 229 211 197 194 192 193 195 197 196 197 198 199 200 200 200 201 202 202 203 202 202 201 202 204 205 206 207 207 207 206 206 207 208 208 205 201 197 194 193 193 193 192 192
152 134 156 194 218 213 230 291 179 223 226 209 210 204 197 187 171 181 203 212 171 159 182 115 243 268 253 150 193 218 213 229 214 200 236 252 245 242 265 262 250 245 247 237 207 190 183 187 188 190 193 194 197 199 199 200 201 201 202 202 202 203 204 204 204 204 204 205 206 206 206 207 208 208 208 208 207 204 200 198 195 195 195 194 193 192
122 135 197 229 262 294 305 334 27 50 69 237 239 178 161 194 184 171 181 184 165 177 183 114 233 261 263 133 199 237 244 262 256 208 209 244 269 257 248 264 270 262 260 244 204 186 170 182 186 188 193 195 198 201 201 201 202 202 202 202 203 204 205 205 205 204 204 204 204 204 204 206 207 208 208 207 206 203 201 199 197 196 196 195 194 193
173 186 202 225 272 319 318 309 285 250 143 226 234 188 189 193 159 119 142 160 183 207 193 177 236 254 275 22 232 231 244 261 270 261 213 226 262 264 251 253 250 259 267 243 201 176 172 183 188 194 198 197 198 202 204 204 203 203 203 203 203 204 205 205 205 204 203 203 203 203 204 206 207 207 206 205 204 203 201 200 198 197 197 196 195 195
179 185 184 197 226 234 234 234 225 197 156 222 229 199 202 192 169 171 185 161 219 226 195 186 241 251 265 317 249 228 241 262 262 259 239 232 250 263 267 257 241 244 253 238 205 184 194 196 197 201 201 202 201 201 204 206 205 204 205 205 205 204 203 204 204 203 203 202 202 203 204 205 206 206 205 204 203 203 202 201 200 199 197 197 197 197
159 210 197 198 212 222 233 242 199 127 141 204 217 200 197 195 186 186 184 194 219 229 216 215 233 248 257 252 230 233 234 246 258 258 251 252 252 252 256 262 259 242 240 237 211 199 209 208 208 206 204 205 206 203 204 206 206 206 205 206 205 204 202 202 202 202 202 202 202 203 204 205 205 206 205 204 204 203 203 202 201 200 199 198 199 199
119 234 215 212 219 224 237 243 200 144 176 203 207 201 195 193 187 187 207 222 219 220 237 233 226 243 258 249 226 228 229 232 253 257 249 250 250 243 241 258 268 255 243 233 217 213 214 215 216 211 206 206 206 207 207 207 209 208 207 207 205 203 202 201 200 201 201 201 202 204 205 205 205 206 205 205 204 204 203 203 202 201 201 200 200 201
167 227 217 217 226 228 239 243 208 177 203 204 200 201 194 188 189 196 215 225 219 212 236 244 231 231 252 254 239 224 226 227 230 233 238 251 266 262 240 238 254 255 242 228 220 218 217 218 217 209 207 205 203 207 208 208 210 210 209 208 205 203 202 200 199 200 200 201 202 204 205 204 204 205 204 203 203 204 204 203 203 203 202 202 202 203
168 229 224 219 229 231 238 243 221 199 217 223 207 202 194 189 194 204 217 223 222 224 238 252 252 243 246 254 248 224 217 220 224 234 252 268 265 257 242 233 238 241 237 229 223 222 221 221 217 206 204 204 204 206 207 208 209 208 208 208 204 203 202 199 198 199 199 200 202 203 203 202 203 203 202 203 203 204 204 204 204 204 203 203 203 203
167 219 227 215 233 240 241 246 237 213 215 229 224 205 202 202 204 210 218 220 222 230 237 244 254 256 253 253 254 237 209 211 227 240 251 249 242 243 243 238 235 236 238 237 232 230 227 222 215 204 204 209 209 206 206 208 208 207 207 206 204 202 200 199 198 198 199 201 201 201 201 201 202 202 202 203 204 204 204 204 204 204 203 203 202 202
174 216 226 206 231 240 238 245 245 217 197 231 235 214 212 214 213 213 215 214 213 218 229 237 245 254 255 250 250 238 192 193 218 221 229 239 234 232 237 238 236 237 240 240 236 232 228 220 212 208 212 215 211 207 207 206 204 205 207 205 203 201 198 199 200 199 199 200 200 200 201 201 201 201 202 203 203 203 204 204 203 203 202 202 202 202
170 205 220 213 231 240 238 243 242 177 157 234 233 223 221 218 215 218 223 224 219 212 218 226 232 246 254 247 240 237 194 193 218 212 215 232 232 229 234 237 239 242 243 241 237 231 226 220 215 215 217 217 212 210 209 204 201 204 205 202 200 198 197 199 200 200 199 199 199 200 201 201 200 200 200 200 201 202 202 202 202 202 203 203 203 203
183 201 215 210 223 243 243 242 231 198 219 232 230 229 229 220 207 214 226 229 225 216 224 239 243 251 254 247 243 243 215 202 218 217 218 228 231 233 237 238 240 244 246 243 238 232 226 223 224 224 224 223 217 213 209 205 204 205 203 199 197 196 197 197 198 199 199 198 198 199 199 199 199 199 199 198 199 200 201 202 203 204 205 205 204 205
193 206 212 207 220 246 246 238 231 226 229 240 245 236 232 221 212 217 228 233 229 220 227 243 249 250 250 250 250 247 231 223 230 234 235 236 235 236 237 238 234 233 239 241 238 234 229 226 226 226 226 225 218 210 205 203 202 200 196 195 194 194 195 196 196 198 199 197 197 197 197 197 196 196 196 197 198 199 201 202 203 204 206 206 207 208
202 209 205 205 215 223 220 220 229 241 263 290 276 248 218 219 217 220 235 242 234 223 221 231 241 246 249 253 253 246 242 256 266 254 243 235 236 236 232 236 234 227 231 234 227 227 228 227 228 226 223 220 210 203 201 198 195 192 190 191 191 192 193 194 195 197 197 196 196 196 197 196 194 194 196 196 197 198 200 202 204 205 206 207 207 208
208 211 210 215 209 207 224 229 239 276 299 274 255 232 183 195 202 201 227 243 237 224 217 223 236 242 244 250 254 252 278 321 292 268 248 222 220 226 226 234 237 227 228 230 224 228 235 235 233 229 221 210 200 196 195 192 189 186 184 185 188 189 190 192 194 195 195 196 196 196 197 197 196 195 195 195 196 198 200 203 204 205 206 206 206 207
211 209 207 217 206 202 227 236 238 251 250 242 243 232 185 184 190 182 207 245 246 228 215 218 233 240 243 253 256 240 107 272 270 269 255 206 206 221 224 236 241 230 230 233 225 228 234 231 225 218 206 196 191 191 189 185 183 180 178 181 184 186 188 191 194 195 195 197 198 197 197 198 196 195 194 195 197 199 201 203 204 206 207 207 208 210
211 212 212 219 214 204 220 230 230 232 232 238 244 237 184 168 152 137 178 241 250 238 216 210 229 238 240 248 244 195 162 237 255 264 249 187 197 216 217 230 241 234 235 236 224 220 221 212 203 195 188 183 180 181 182 180 178 176 176 180 183 184 187 191 194 196 196 198 198 197 197 197 197 197 196 197 200 202 203 204 205 207 209 210 211 213
208 213 216 221 224 219 222 232 234 235 240 238 236 223 185 154 128 127 199 243 246 235 189 179 210 227 231 238 235 199 195 226 244 258 243 161 183 211 211 231 240 231 228 224 214 213 204 190 180 174 174 175 174 175 177 176 175 175 177 179 181 184 190 193 195 196 196 197 197 197 198 198 198 199 200 201 202 203 203 204 204 205 208 210 212 214
203 208 211 220 228 225 226 236 245 245 241 232 207 182 169 132 125 173 222 232 210 170 158 169 192 212 223 230 226 207 215 227 235 249 94 117 168 191 200 263 220 196 206 199 192 187 176 172 173 169 170 172 170 171 173 172 171 173 175 177 181 188 194 194 194 194 194 195 196 197 198 199 199 201 202 202 202 201 202 204 205 206 209 211 212 214
194 200 207 216 225 228 230 238 246 252 236 177 147 171 165 148 190 219 227 228 170 168 181 186 192 206 219 224 219 216 226 234 234 204 142 157 180 176 162 136 127 133 154 165 171 168 159 158 161 159 162 167 168 169 171 170 169 170 173 177 185 192 193 192 191 192 192 193 194 195 196 198 199 200 200 201 201 200 201 203 206 209 211 212 213 215
181 185 203 204 207 222 233 228 231 250 229 137 125 133 234 214 209 195 207 264 218 184 196 202 204 211 216 221 225 226 229 236 229 198 194 189 176 166 172 170 153 143 140 142 155 161 154 146 146 149 155 162 167 170 171 169 167 168 173 181 188 190 189 189 190 189 189 190 192 194 196 197 198 199 199 200 201 201 202 203 206 209 212 212 213 215
188 187 203 200 194 202 220 225 219 215 184 159 150 164 214 222 202 151 186 236 237 204 197 209 230 230 215 216 229 229 225 228 218 199 195 190 187 180 171 162 151 145 143 143 150 155 149 140 136 141 148 158 165 169 172 171 168 168 175 182 185 184 184 186 186 186 186 188 190 192 195 197 197 198 199 200 201 200 201 203 205 208 211 213 214 215
204 197 189 193 210 212 212 218 212 165 188 205 201 187 203 220 219 193 198 222 230 212 186 192 237 242 220 213 222 215 218 225 212 195 192 193 190 177 161 153 147 143 142 140 142 148 145 138 134 134 139 153 164 168 172 175 172 169 173 178 180 180 180 180 181 182 183 186 189 191 193 194 195 197 199 200 201 201 201 203 204 206 209 211 213 215
233 213 172 131 238 252 238 212 215 236 233 230 236 226 213 223 227 208 203 217 217 202 188 193 221 228 209 195 204 217 223 214 199 199 197 183 175 164 148 143 140 141 143 139 138 142 140 134 132 131 131 142 159 166 171 178 177 173 173 174 176 178 178 176 177 180 182 185 187 189 190 191 192 195 199 201 203 205 206 206 205 205 207 208 210 214
284 247 205 185 204 221 222 209 215 230 228 216 226 235 234 241 244 215 213 230 221 201 206 212 216 219 197 184 201 220 220 194 183 192 185 168 171 171 160 156 152 150 150 146 143 142 139 133 131 131 130 137 153 164 169 176 180 176 172 171 173 174 175 175 175 177 179 182 184 186 189 190 190 193 196 199 201 204 206 208 207 206 206 207 208 211
339 343 297 247 226 223 232 232 231 244 252 238 232 239 243 248 249 234 237 256 263 225 220 213 190 182 188 197 206 211 202 186 183 182 175 174 178 170 163 164 159 149 146 145 145 144 141 138 136 135 135 137 146 158 165 170 173 170 167 167 169 171 172 174 174 176 178 180 183 185 187 190 190 191 192 195 198 200 203 205 207 208 210 212 212 213
100 331 296 268 257 259 268 266 264 282 296 266 237 237 244 241 235 237 245 253 252 234 214 207 204 195 193 201 199 182 179 193 192 177 169 172 173 168 165 158 147 141 140 144 148 148 144 141 138 136 134 135 141 150 155 157 160 161 161 162 165 168 170 170 172 174 175 177 180 182 184 187 189 190 191 192 195 199 204 207 210 214 218 221 224 226
165 231 250 265 262 258 255 253 251 260 272 258 236 232 235 224 210 228 237 229 227 220 201 197 210 208 202 207 194 177 183 193 186 174 172 173 170 166 159 148 141 141 142 143 146 146 143 141 139 134 131 133 138 141 142 145 150 154 157 159 163 167 168 166 167 169 170 174 177 178 181 184 186 188 191 191 192 196 201 207 213 219 223 227 231 234
210 223 219 225 246 253 266 274 272 264 268 273 270 246 230 207 194 216 228 224 223 219 201 191 191 189 203 214 200 185 186 181 172 170 166 162 160 154 151 152 151 147 147 147 144 141 140 140 137 133 131 134 136 136 136 139 143 147 153 157 162 167 167 165 164 164 167 172 175 177 179 182 183 186 189 191 194 196 197 201 208 216 223 228 231 235